Adventuress — WCX8691 — position and weather

sailwx.info

Track history (hours):
 
Tides and Currents Weather Stations Pressure Air Temp Water Temp Dewpoint Dewpoint Depression Visibility Wind Speed Wind Dir Waves Ship Positions

Adventuress (United States)

Ship's website: http://www.soundexp.org/

Owner: SOUND EXPERIENCE, PORT TOWNSEND, WA. More information available from US FCC via Universal Licensing System and Coast Guard Vessel Documentation Center.

Last reported at 2016-May-04 15:26 UTC. Time now 2016-May-06 07:20 UTC.
Position N 48°29' W 122°57'.

Type: Passenger vessel. MMSI: 367323180.

Date/timePositionNaut miles runAvg speedWind from/ knotsBaromVisibWave heightAir tempDewpointWater temp
2016-May-04 15:26N 48°29' W 122°57'4 1.9
2016-May-04 13:14N 48°32' W 123°01'1 0.1
2016-May-03 22:30N 48°33' W 122°59'23 2.2
2016-May-03 12:24N 48°45' W 122°30'0 0.0
2016-May-03 11:15N 48°45' W 122°30'0 0.0
2016-May-02 00:29N 48°45' W 122°31'1 1.0
2016-May-01 23:33N 48°45' W 122°32'1 0.6
2016-May-01 22:32N 48°45' W 122°31'1 0.2
2016-May-01 20:27N 48°45' W 122°30'1 1.6
2016-May-01 19:33N 48°44' W 122°32'1 1.2
2016-May-01 18:33N 48°45' W 122°31'0 0.1
2016-May-01 15:05N 48°45' W 122°30'0 0.0
2016-May-01 09:17N 48°45' W 122°30'0 0.0
2016-May-01 06:32N 48°45' W 122°30'0 0.0
2016-May-01 02:26N 48°45' W 122°30'0 0.0
2016-Apr-30 23:17N 48°45' W 122°30'1 0.4
2016-Apr-30 21:22N 48°45' W 122°31'3 2.9
2016-Apr-30 20:29N 48°42' W 122°33'3 0.2
2016-Apr-30 01:10N 48°45' W 122°30'0 0.0
2016-Apr-29 19:13N 48°45' W 122°30'2 1.5
2016-Apr-29 18:08N 48°45' W 122°33'1 1.0
2016-Apr-29 17:33N 48°44' W 122°33'2 1.7
2016-Apr-29 16:33N 48°45' W 122°31'0 0.1
2016-Apr-29 12:29N 48°45' W 122°30'0 0.0
2016-Apr-29 11:29N 48°45' W 122°30'0 0.0
2016-Apr-29 10:33N 48°45' W 122°30'0 0.0
2016-Apr-29 09:13N 48°45' W 122°30'0 0.0
2016-Apr-29 06:30N 48°45' W 122°30'0 0.0
2016-Apr-29 02:30N 48°45' W 122°30'0 0.0
2016-Apr-28 20:31N 48°45' W 122°30'0 0.0
2016-Apr-28 09:23N 48°45' W 122°30'  
2016-Apr-25 13:17N 48°45' W 122°30'3 0.2
2016-Apr-24 18:33N 48°42' W 122°33'5 5.2
2016-Apr-24 17:32N 48°37' W 122°35'4 3.0
2016-Apr-24 16:06N 48°33' W 122°34'2 3.6
2016-Apr-24 15:33N 48°32' W 122°36'  
Track history (hours):
 
Tides and Currents Weather Stations Pressure Air Temp Water Temp Dewpoint Dewpoint Depression Visibility Wind Speed Wind Dir Waves Ship Positions

Adventuress (United States)

Ship's website: http://www.soundexp.org/

Owner: SOUND EXPERIENCE, PORT TOWNSEND, WA. More information available from US FCC via Universal Licensing System and Coast Guard Vessel Documentation Center.

Last reported at 2016-May-04 15:26 UTC. Time now 2016-May-06 07:20 UTC.
Position N 48°29' W 122°57'.

Type: Passenger vessel. MMSI: 367323180.

Date/timePositionNaut miles runAvg speedWind from/ knotsBaromVisibWave heightAir tempDewpointWater temp
2016-May-04 15:26N 48°29' W 122°57'4 1.9
2016-May-04 13:14N 48°32' W 123°01'1 0.1
2016-May-03 22:30N 48°33' W 122°59'23 2.2
2016-May-03 12:24N 48°45' W 122°30'0 0.0
2016-May-03 11:15N 48°45' W 122°30'0 0.0
2016-May-02 00:29N 48°45' W 122°31'1 1.0
2016-May-01 23:33N 48°45' W 122°32'1 0.6
2016-May-01 22:32N 48°45' W 122°31'1 0.2
2016-May-01 20:27N 48°45' W 122°30'1 1.6
2016-May-01 19:33N 48°44' W 122°32'1 1.2
2016-May-01 18:33N 48°45' W 122°31'0 0.1
2016-May-01 15:05N 48°45' W 122°30'0 0.0
2016-May-01 09:17N 48°45' W 122°30'0 0.0
2016-May-01 06:32N 48°45' W 122°30'0 0.0
2016-May-01 02:26N 48°45' W 122°30'0 0.0
2016-Apr-30 23:17N 48°45' W 122°30'1 0.4
2016-Apr-30 21:22N 48°45' W 122°31'3 2.9
2016-Apr-30 20:29N 48°42' W 122°33'3 0.2
2016-Apr-30 01:10N 48°45' W 122°30'0 0.0
2016-Apr-29 19:13N 48°45' W 122°30'2 1.5
2016-Apr-29 18:08N 48°45' W 122°33'1 1.0
2016-Apr-29 17:33N 48°44' W 122°33'2 1.7
2016-Apr-29 16:33N 48°45' W 122°31'0 0.1
2016-Apr-29 12:29N 48°45' W 122°30'0 0.0
2016-Apr-29 11:29N 48°45' W 122°30'0 0.0
2016-Apr-29 10:33N 48°45' W 122°30'0 0.0
2016-Apr-29 09:13N 48°45' W 122°30'0 0.0
2016-Apr-29 06:30N 48°45' W 122°30'0 0.0
2016-Apr-29 02:30N 48°45' W 122°30'0 0.0
2016-Apr-28 20:31N 48°45' W 122°30'0 0.0
2016-Apr-28 09:23N 48°45' W 122°30'  
2016-Apr-25 13:17N 48°45' W 122°30'3 0.2
2016-Apr-24 18:33N 48°42' W 122°33'5 5.2
2016-Apr-24 17:32N 48°37' W 122°35'4 3.0
2016-Apr-24 16:06N 48°33' W 122°34'2 3.6
2016-Apr-24 15:33N 48°32' W 122°36'  

Dump ship's entire track history